Hourly Weather Bartlewo

Today, 18 April, Sunday

Time Temperature Precipitation Wind Pressure Humidity
00:00 +7°C° 0 mm 2 mps 754 mmHg 91%
01:00 +6°C° 0 mm 2 mps 754 mmHg 91%
02:00 +6°C° 0 mm 2 mps 754 mmHg 91%
03:00 +7°C° 0 mm 2 mps 754 mmHg 91%
04:00 +7°C° 0 mm 2 mps 754 mmHg 91%
05:00 +7°C° 0 mm 2 mps 754 mmHg 90%
06:00 +8°C° 0 mm 2 mps 754 mmHg 88%
07:00 +8°C° 0 mm 2 mps 754 mmHg 87%
08:00 +10°C° 0.3 mm 1 mps 754 mmHg 88%
09:00 +10°C° 0.3 mm 1 mps 754 mmHg 89%
10:00 +9°C° 0.3 mm 0 mps 754 mmHg 90%
11:00 +10°C° 0.1 mm 0 mps 754 mmHg 87%
12:00 +12°C° 0.1 mm 1 mps 754 mmHg 83%
13:00 +13°C° 0.1 mm 1 mps 754 mmHg 80%
14:00 +13°C° 0.1 mm 1 mps 754 mmHg 81%
15:00 +13°C° 0.1 mm 1 mps 754 mmHg 81%
16:00 +13°C° 0.1 mm 1 mps 753 mmHg 82%
17:00 +12°C° 0.3 mm 1 mps 754 mmHg 85%
18:00 +12°C° 0.3 mm 1 mps 754 mmHg 87%
19:00 +11°C° 0.3 mm 1 mps 754 mmHg 90%
20:00 +9°C° 0.1 mm 2 mps 754 mmHg 90%
21:00 +9°C° 0.1 mm 2 mps 754 mmHg 90%
22:00 +9°C° 0.1 mm 2 mps 754 mmHg 89%
23:00 +8°C° 0 mm 2 mps 754 mmHg 90%

Tomorrow, 19 April, Monday

Time Temperature Precipitation Wind Pressure Humidity
00:00 +8°C° 0 mm 2 mps 754 mmHg 91%
01:00 +8°C° 0 mm 2 mps 754 mmHg 92%
02:00 +8°C° 0 mm 2 mps 754 mmHg 92%
03:00 +8°C° 0 mm 2 mps 754 mmHg 92%
04:00 +8°C° 0 mm 2 mps 754 mmHg 92%
05:00 +8°C° 0 mm 2 mps 754 mmHg 88%
06:00 +9°C° 0 mm 2 mps 755 mmHg 84%
07:00 +9°C° 0 mm 3 mps 755 mmHg 79%
08:00 +11°C° 0 mm 3 mps 755 mmHg 72%
09:00 +12°C° 0 mm 3 mps 754 mmHg 64%
10:00 +13°C° 0 mm 3 mps 754 mmHg 57%
11:00 +13°C° 0.1 mm 3 mps 754 mmHg 56%
12:00 +13°C° 0.1 mm 3 mps 754 mmHg 55%
13:00 +13°C° 0.1 mm 3 mps 754 mmHg 54%
14:00 +13°C° 0.1 mm 4 mps 754 mmHg 56%
15:00 +13°C° 0.1 mm 4 mps 754 mmHg 59%
16:00 +12°C° 0.1 mm 4 mps 753 mmHg 62%
17:00 +11°C° 0 mm 4 mps 754 mmHg 67%
18:00 +9°C° 0 mm 3 mps 754 mmHg 72%
19:00 +8°C° 0 mm 3 mps 754 mmHg 78%
20:00 +8°C° 0 mm 3 mps 754 mmHg 76%
21:00 +8°C° 0 mm 2 mps 754 mmHg 74%
22:00 +7°C° 0 mm 2 mps 754 mmHg 73%
23:00 +8°C° 0 mm 2 mps 753 mmHg 70%

Day after tomorrow, 20 April, Tuesday

Time Temperature Precipitation Wind Pressure Humidity
00:00 +8°C° 0 mm 2 mps 753 mmHg 67%
01:00 +8°C° 0 mm 2 mps 753 mmHg 63%
02:00 +8°C° 0 mm 2 mps 753 mmHg 64%
03:00 +8°C° 0 mm 2 mps 752 mmHg 64%
04:00 +7°C° 0 mm 2 mps 752 mmHg 64%
05:00 +8°C° 0 mm 2 mps 752 mmHg 67%
06:00 +8°C° 0 mm 2 mps 752 mmHg 70%
07:00 +8°C° 0 mm 2 mps 752 mmHg 72%
08:00 +9°C° 0.1 mm 2 mps 752 mmHg 68%
09:00 +10°C° 0.1 mm 2 mps 751 mmHg 64%
10:00 +11°C° 0.1 mm 3 mps 751 mmHg 60%
11:00 +11°C° 0.2 mm 3 mps 751 mmHg 60%
12:00 +13°C° 0.2 mm 2 mps 750 mmHg 59%
13:00 +13°C° 0.2 mm 2 mps 750 mmHg 59%
14:00 +13°C° 0.3 mm 2 mps 750 mmHg 61%
15:00 +11°C° 0.3 mm 3 mps 750 mmHg 63%
16:00 +11°C° 0.3 mm 3 mps 749 mmHg 65%
17:00 +10°C° 0.2 mm 2 mps 749 mmHg 71%
18:00 +9°C° 0.2 mm 2 mps 749 mmHg 77%
19:00 +8°C° 0.2 mm 2 mps 749 mmHg 83%
20:00 +7°C° 0 mm 2 mps 749 mmHg 85%
21:00 +8°C° 0 mm 1 mps 749 mmHg 87%
22:00 +7°C° 0 mm 1 mps 749 mmHg 89%
23:00 +7°C° 0 mm 1 mps 748 mmHg 90%

21 April, Wednesday

Time Temperature Precipitation Wind Pressure Humidity
00:00 +7°C° 0 mm 1 mps 748 mmHg 91%
01:00 +5°C° 0 mm 2 mps 748 mmHg 92%
02:00 +5°C° 0 mm 2 mps 748 mmHg 92%
03:00 +5°C° 0 mm 2 mps 748 mmHg 92%
04:00 +4°C° 0 mm 2 mps 747 mmHg 91%
05:00 +5°C° 0 mm 2 mps 747 mmHg 86%
06:00 +7°C° 0 mm 2 mps 747 mmHg 81%
07:00 +8°C° 0 mm 2 mps 747 mmHg 76%
08:00 +9°C° 0.1 mm 2 mps 747 mmHg 70%
09:00 +10°C° 0.1 mm 2 mps 747 mmHg 64%
10:00 +12°C° 0.1 mm 2 mps 747 mmHg 57%
11:00 +11°C° 0.1 mm 3 mps 746 mmHg 55%
12:00 +12°C° 0.1 mm 3 mps 746 mmHg 53%
13:00 +12°C° 0.1 mm 3 mps 746 mmHg 50%
14:00 +11°C° 0.2 mm 3 mps 746 mmHg 60%
15:00 +10°C° 0.2 mm 3 mps 746 mmHg 69%
16:00 +9°C° 0.2 mm 2 mps 746 mmHg 79%
17:00 +9°C° 0.2 mm 2 mps 746 mmHg 82%
18:00 +9°C° 0.2 mm 1 mps 746 mmHg 86%
19:00 +8°C° 0.2 mm 1 mps 746 mmHg 89%
20:00 +8°C° 0.1 mm 1 mps 746 mmHg 90%
21:00 +8°C° 0.1 mm 1 mps 746 mmHg 91%
22:00 +7°C° 0.1 mm 1 mps 746 mmHg 92%
23:00 +7°C° 0 mm 1 mps 746 mmHg 92%

22 April, Thursday

Time Temperature Precipitation Wind Pressure Humidity
00:00 +6°C° 0 mm 1 mps 747 mmHg 93%
01:00 +6°C° 0 mm 1 mps 747 mmHg 94%
02:00 +6°C° 0 mm 1 mps 747 mmHg 94%
03:00 +4°C° 0 mm 2 mps 747 mmHg 95%
04:00 +4°C° 0 mm 2 mps 748 mmHg 96%
05:00 +4°C° 0 mm 2 mps 748 mmHg 94%
06:00 +5°C° 0 mm 2 mps 749 mmHg 93%
07:00 +5°C° 0 mm 3 mps 750 mmHg 92%
08:00 +5°C° 0.4 mm 3 mps 750 mmHg 89%
09:00 +6°C° 0.4 mm 2 mps 751 mmHg 86%
10:00 +6°C° 0.4 mm 2 mps 751 mmHg 83%
11:00 +7°C° 0.1 mm 2 mps 752 mmHg 77%
12:00 +8°C° 0.1 mm 2 mps 752 mmHg 70%
13:00 +10°C° 0.1 mm 1 mps 752 mmHg 63%
14:00 +10°C° 0.1 mm 1 mps 753 mmHg 61%
15:00 +9°C° 0.1 mm 2 mps 753 mmHg 59%
16:00 +10°C° 0.1 mm 2 mps 753 mmHg 56%
17:00 +9°C° 0.1 mm 1 mps 753 mmHg 61%
18:00 +8°C° 0.1 mm 1 mps 754 mmHg 66%
19:00 +7°C° 0.1 mm 1 mps 754 mmHg 72%
20:00 +6°C° 0 mm 1 mps 754 mmHg 76%
21:00 +5°C° 0 mm 1 mps 755 mmHg 80%
22:00 +5°C° 0 mm 1 mps 755 mmHg 85%
23:00 +5°C° 0 mm 1 mps 755 mmHg 86%

23 April, Friday

Time Temperature Precipitation Wind Pressure Humidity
00:00 +4°C° 0 mm 1 mps 756 mmHg 87%
01:00 +4°C° 0 mm 1 mps 756 mmHg 87%
02:00 +4°C° 0 mm 1 mps 756 mmHg 88%
03:00 +4°C° 0 mm 1 mps 756 mmHg 89%
04:00 +3°C° 0 mm 2 mps 756 mmHg 90%
05:00 +4°C° 0 mm 2 mps 757 mmHg 87%
06:00 +5°C° 0 mm 2 mps 757 mmHg 83%
07:00 +6°C° 0 mm 2 mps 757 mmHg 80%
08:00 +7°C° 0 mm 3 mps 757 mmHg 73%
09:00 +8°C° 0 mm 4 mps 757 mmHg 66%
10:00 +10°C° 0 mm 4 mps 758 mmHg 59%
11:00 +10°C° 0 mm 4 mps 757 mmHg 59%
12:00 +11°C° 0 mm 4 mps 757 mmHg 59%
13:00 +11°C° 0 mm 4 mps 757 mmHg 59%
14:00 +11°C° 0.1 mm 4 mps 757 mmHg 64%
15:00 +12°C° 0.1 mm 4 mps 757 mmHg 68%
16:00 +13°C° 0.1 mm 4 mps 757 mmHg 73%
17:00 +12°C° 0.5 mm 4 mps 758 mmHg 77%
18:00 +11°C° 0.5 mm 4 mps 758 mmHg 82%
19:00 +10°C° 0.5 mm 4 mps 758 mmHg 86%
20:00 +10°C° 0 mm 4 mps 759 mmHg 88%
21:00 +9°C° 0 mm 3 mps 759 mmHg 90%
22:00 +8°C° 0 mm 3 mps 759 mmHg 92%
23:00 +8°C° 0 mm 3 mps 760 mmHg 93%
Show more